Weather in Klenovka

Russia / Volgograd Oblast     51°08′16″N   44°29′01″E
temp.,
°C
wind,
m/s
gust,
m/s
humid.,
%
clouds,
%
prec.,
mm/h
press.,
hPa
HPBL,
m
6 march, sat
sat600:00−6nw2293100 0.0 101521
03:00−7nnw2291100 0.0 101621
06:00−7nne129398 0.0 101621
09:00−6ene229399 0.0 101682
12:00−4ne2288100 0.0 1015243
15:00−3nne2396100 0.8 1014250
18:00−5nne2297100 0.8 101348
21:00−6n1297100 1.4 101440
7 march, sun
sun700:00−7nw369699 0.5 1014137
03:00−9nw5109488 0.6 1015317
06:00−13wnw499478 0.0 1017155
09:00−11w589139 0.0 1018247
12:00−6wsw6118627 0.0 1016774
15:00−4sw6128144 0.0 10131017
18:00−4sw81677100 0.0 1010789
21:00−3sw101973100 0.0 1007845
8 march, mon
mon800:00−3sw101881100 0.0 1005957
03:00−2wsw101693100 0.4 1004964
06:00−2wsw91593100 0.4 1004913
09:00−1wsw81393100 1.0 10051154
12:00−1wsw7147797 0.1 10051324
15:00−1w10167798 1.2 10061154
18:00−6wnw6147941 0.0 1008543
21:00−10wnw5138720 0.0 1012287
9 march, tue
tue900:00−12wnw47920 0.0 1013120
03:00−14w34920 0.0 101455
06:00−14w33930 0.0 101533
09:00−12w23920 0.0 1016115
12:00−9nw128679 0.0 1015255
15:00−8n128689 0.0 1015289
18:00−11nnw2394100 0.0 101524
21:00−12n3393100 0.0 101774
10 march, wed
wed1000:00−13n3595100 0.0 1017128
03:00−14nnw4794100 0.0 1019238
06:00−16nnw4893100 0.0 1020239
09:00−16nnw479367 0.0 1022266
12:00−15nw588835 0.0 1024429
15:00−15nw578618 0.0 1025462
18:00−18wnw349325 0.0 102545
21:00−18nnw249354 0.0 102795